GW6694 Weather Reports


time (UTC)temp
C
wind
direction
speed
KPH
gust
KPH
rain 1hr
cm
rain 24hr
cm
rain mn
cm
humidity
%
barometer
mb
20260510193905 32 349 4.8 12.9 0.00 0.00 0.00 59 1019.3
20260510193406 32 300 4.8 12.9 0.00 0.00 0.00 56 1019.3
20260510192906 32 291 4.8 14.5 0.00 0.00 0.00 57 1019.3
20260510192405 32 317 11.3 14.5 0.00 0.00 0.00 58 1019.1
20260510191906 32 309 14.5 19.3 0.00 0.00 0.00 59 1019.1
20260510191406 32 292 16.1 19.3 0.00 0.00 0.00 59 1019.3
20260510190905 32 282 12.9 19.3 0.00 0.00 0.00 57 1019.0
20260510190406 32 281 8.0 19.3 0.00 0.00 0.00 59 1019.0
20260510185906 32 303 12.9 22.5 0.00 0.00 0.00 59 1019.0
20260510185405 31 247 14.5 22.5 0.00 0.00 0.00 59 1019.0
20260510183906 33 267 16.1 16.1 0.00 0.00 0.00 55 1019.0
20260510183406 33 263 4.8 16.1 0.00 0.00 0.00 54 1019.0
20260510182906 32 318 11.3 16.1 0.00 0.00 0.00 55 1019.0
20260510182406 32 250 3.2 19.3 0.00 0.00 0.00 58 1019.0
20260510181905 32 299 9.7 19.3 0.00 0.00 0.00 58 1019.0
20260510181405 32 346 16.1 16.1 0.00 0.00 0.00 56 1019.0
20260510180905 33 339 16.1 16.1 0.00 0.00 0.00 58 1019.3
20260510175906 33 298 9.7 14.5 0.00 0.00 0.00 56 1019.0
20260510175406 33 320 12.9 20.9 0.00 0.00 0.00 55 1019.3
20260510174905 33 320 17.7 20.9 0.00 0.00 0.00 53 1019.3
20260510174405 33 328 14.5 19.3 0.00 0.00 0.00 52 1019.3
20260510173907 33 5 12.9 19.3 0.00 0.00 0.00 54 1019.3
20260510173405 34 0 12.9 19.3 0.00 0.00 0.00 55 1019.3
20260510172406 33 321 11.3 22.5 0.00 0.00 0.00 52 1019.3
20260510171405 32 325 16.1 19.3 0.00 0.00 0.00 53 1019.3
20260510170905 33 276 14.5 14.5 0.00 0.00 0.00 49 1019.3
20260510170406 33 176 14.5 19.3 0.00 0.00 0.00 49 1019.3
20260510165905 35 296 16.1 19.3 0.00 0.00 0.00 47 1019.6
20260510165406 35 305 3.2 9.7 0.00 0.00 0.00 48 1019.3
20260510164906 35 328 9.7 12.9 0.00 0.00 0.00 48 1019.6
20260510164406 34 300 11.3 12.9 0.00 0.00 0.00 48 1019.6
20260510163906 34 327 1.6 12.9 0.00 0.00 0.00 49 1019.6
20260510163405 34 337 4.8 12.9 0.00 0.00 0.00 50 1019.6
20260510162905 34 313 9.7 9.7 0.00 0.00 0.00 51 1019.6
20260510162405 33 6 3.2 9.7 0.00 0.00 0.00 56 1020.0
20260510161905 32 181 3.2 11.3 0.00 0.00 0.00 56 1020.0
20260510160905 32 272 8.0 11.3 0.00 0.00 0.00 55 1020.0
20260510160405 34 268 4.8 11.3 0.00 0.00 0.00 51 1020.0
20260510155905 35 342 1.6 4.8 0.00 0.00 0.00 51 1020.0
20260510155405 34 240 4.8 4.8 0.00 0.00 0.00 53 1020.0
20260510154405 33 228 4.8 9.7 0.00 0.00 0.00 54 1020.0
20260510153905 33 309 4.8 9.7 0.00 0.00 0.00 54 1019.6
20260510152905 33 23 3.2 9.7 0.00 0.00 0.00 56 1020.0
20260510152405 34 120 4.8 9.7 0.00 0.00 0.00 54 1020.0
20260510151905 34 291 1.6 11.3 0.00 0.00 0.00 56 1020.0
20260510151405 33 341 4.8 11.3 0.00 0.00 0.00 55 1020.0
20260510150905 33 12 1.6 9.7 0.00 0.00 0.00 59 1020.0
20260510145905 32 341 3.2 11.3 0.00 0.00 0.00 61 1020.0
20260510145405 32 315 4.8 11.3 0.00 0.00 0.00 61 1020.0
20260510144905 32 22 1.6 11.3 0.00 0.00 0.00 62 1020.3
20260510144405 32 140 1.6 9.7 0.00 0.00 0.00 61 1020.1
20260510143905 32 283 3.2 12.9 0.00 0.00 0.00 61 1020.0
20260510142905 32 320 6.4 8.0 0.00 0.00 0.00 61 1020.0
20260510141905 31 21 1.6 4.8 0.00 0.00 0.00 63 1020.0
20260510141405 31 297 3.2 4.8 0.00 0.00 0.00 64 1020.0
20260510140905 30 26 1.6 8.0 0.00 0.00 0.00 66 1020.0
20260510140405 30 350 0.0 8.0 0.00 0.00 0.00 66 1019.6
20260510135905 30 63 4.8 9.7 0.00 0.00 0.00 66 1019.6
20260510135405 30 80 3.2 9.7 0.00 0.00 0.00 67 1019.6
20260510134904 29 0 0.0 1.6 0.00 0.00 0.00 70 1019.6
20260510134405 28 341 0.0 3.2 0.00 0.00 0.00 72 1019.6
20260510133904 28 82 3.2 3.2 0.00 0.00 0.00 72 1019.6
20260510133405 28 258 3.2 3.2 0.00 0.00 0.00 74 1019.6
20260510132905 27 340 0.0 1.6 0.00 0.00 0.00 78 1019.6
20260510132405 26 12 0.0 3.2 0.00 0.00 0.00 79 1019.6
20260510131905 26 93 3.2 3.2 0.00 0.00 0.00 79 1019.6
20260510131405 26 19 0.0 3.2 0.00 0.00 0.00 79 1019.6
20260510130405 26 69 1.6 3.2 0.00 0.00 0.00 79 1019.6
20260510125405 26 324 1.6 3.2 0.00 0.00 0.00 80 1019.3
20260510124905 26 16 1.6 1.6 0.00 0.00 0.00 81 1019.3
20260510124405 26 354 0.0 3.2 0.00 0.00 0.00 82 1019.3
20260510123905 25 280 1.6 3.2 0.00 0.00 0.00 85 1019.3
20260510123405 25 76 1.6 1.6 0.00 0.00 0.00 89 1019.3
20260510122905 24 346 0.0 0.0 0.00 0.00 0.00 91 1019.3
20260510122405 24 356 0.0 0.0 0.00 0.00 0.00 93 1019.3
20260510121905 23 4 0.0 0.0 0.00 0.00 0.00 94 1019.0
20260510121405 23 346 0.0 1.6 0.00 0.00 0.00 95 1019.0
20260510120905 23 320 0.0 1.6 0.00 0.00 0.00 95 1019.0
20260510120405 23 347 0.0 0.0 0.00 0.00 0.00 96 1019.0
20260510115905 23 328 0.0 0.0 0.00 0.00 0.00 96 1019.0
20260510115405 22 1 0.0 0.0 0.00 0.00 0.00 96 1019.0
20260510114905 22 349 0.0 0.0 0.00 0.00 0.00 96 1018.6
20260510113905 21 0 0.0 0.0 0.00 0.00 0.00 96 1018.6
20260510113404 21 351 0.0 0.0 0.00 0.00 0.00 96 1018.6
20260510112905 21 344 0.0 0.0 0.00 0.00 0.00 96 1018.5
20260510112405 21 337 0.0 0.0 0.00 0.00 0.00 96 1018.3
20260510111904 21 344 0.0 0.0 0.00 0.00 0.00 96 1018.3
20260510111405 21 323 0.0 0.0 0.00 0.00 0.00 96 1018.3
20260510110405 21 341 0.0 0.0 0.00 0.00 0.00 95 1017.9
20260510105405 21 339 0.0 0.0 0.00 0.00 0.00 95 1017.9
20260510104904 21 341 0.0 0.0 0.00 0.00 0.00 95 1017.9
20260510104405 21 338 0.0 0.0 0.00 0.00 0.00 95 1017.9
20260510103905 21 341 0.0 0.0 0.00 0.00 0.00 95 1017.6
20260510103404 21 342 0.0 0.0 0.00 0.00 0.00 95 1017.9
20260510102904 21 334 0.0 0.0 0.00 0.00 0.00 95 1017.6
20260510102405 21 333 0.0 0.0 0.00 0.00 0.00 95 1017.6
20260510101404 21 343 0.0 0.0 0.00 0.00 0.00 94 1017.6
20260510100904 21 337 0.0 0.0 0.00 0.00 0.00 94 1017.6
20260510100404 21 330 0.0 0.0 0.00 0.00 0.00 94 1017.3
20260510095405 21 338 0.0 0.0 0.00 0.00 0.00 94 1017.3
20260510094905 21 338 0.0 0.0 0.00 0.00 0.00 94 1017.3
20260510094404 21 343 0.0 0.0 0.00 0.00 0.00 94 1017.3
20260510093904 21 329 0.0 0.0 0.00 0.00 0.00 94 1017.3
20260510093404 21 343 0.0 0.0 0.00 0.00 0.00 94 1016.9
20260510092904 21 348 0.0 0.0 0.00 0.00 0.00 94 1016.9
20260510091905 22 341 0.0 0.0 0.00 0.00 0.00 93 1016.9
20260510091404 22 342 0.0 0.0 0.00 0.00 0.00 93 1016.9
20260510090404 22 336 0.0 0.0 0.00 0.00 0.00 93 1016.9
20260510085905 22 347 0.0 0.0 0.00 0.00 0.00 93 1016.9
20260510085404 22 331 0.0 0.0 0.00 0.00 0.00 93 1016.9
20260510084905 22 333 0.0 0.0 0.00 0.00 0.00 93 1016.6
20260510084405 22 347 0.0 0.0 0.00 0.00 0.00 93 1016.6
20260510083904 22 338 0.0 0.0 0.00 0.00 0.00 93 1016.6
20260510083404 22 342 0.0 0.0 0.00 0.00 0.00 93 1016.6
20260510082904 22 346 0.0 0.0 0.00 0.00 0.00 93 1016.6
20260510082404 22 342 0.0 0.0 0.00 0.00 0.00 92 1016.6
20260510081904 22 340 0.0 0.0 0.00 0.00 0.00 92 1016.5
20260510081404 22 340 0.0 0.0 0.00 0.00 0.00 92 1016.3
20260510080904 22 344 0.0 0.0 0.00 0.00 0.00 92 1016.3
20260510080404 22 344 0.0 0.0 0.00 0.00 0.00 92 1016.3
20260510075404 22 343 0.0 0.0 0.00 0.00 0.00 92 1016.6
20260510074904 22 344 0.0 0.0 0.00 0.00 0.00 92 1016.6
20260510074405 22 339 0.0 0.0 0.00 0.00 0.00 92 1016.6
20260510073904 22 334 0.0 0.0 0.00 0.00 0.00 92 1016.6
20260510073404 22 353 0.0 0.0 0.00 0.00 0.00 92 1016.6
20260510072904 22 341 0.0 0.0 0.00 0.00 0.00 92 1016.6
20260510072404 23 346 0.0 1.6 0.00 0.00 0.00 92 1016.9
20260510071404 23 344 0.0 0.0 0.00 0.00 0.00 91 1016.9
20260510070904 23 342 0.0 0.0 0.00 0.00 0.00 91 1016.9
20260510070404 23 344 0.0 0.0 0.00 0.00 0.00 91 1016.9
20260510065904 23 345 0.0 0.0 0.00 0.00 0.00 91 1016.9
20260510065405 23 1 0.0 0.0 0.00 0.00 0.00 91 1017.2
20260510064904 23 1 0.0 0.0 0.00 0.00 0.00 91 1017.3
20260510064404 23 357 0.0 0.0 0.00 0.00 0.00 91 1017.3
20260510063404 23 340 0.0 0.0 0.00 0.00 0.00 90 1017.3
20260510062404 23 339 0.0 0.0 0.00 0.00 0.00 90 1017.3
20260510061904 23 339 0.0 0.0 0.00 0.00 0.00 90 1017.6
20260510061404 23 339 0.0 0.0 0.00 0.00 0.00 90 1017.6
20260510060904 23 37 0.0 0.0 0.00 0.00 0.00 89 1017.6
20260510060404 23 347 0.0 0.0 0.00 0.00 0.00 89 1017.6
20260510055904 23 339 0.0 0.0 0.00 0.00 0.00 89 1017.6
20260510055404 23 343 0.0 4.8 0.00 0.00 0.00 89 1017.6
20260510054904 23 71 3.2 4.8 0.00 0.00 0.00 89 1017.9
20260510054404 23 342 0.0 0.0 0.00 0.00 0.00 88 1018.3
20260510053404 23 331 0.0 1.6 0.00 0.00 0.00 87 1018.3
20260510051904 23 337 0.0 0.0 0.00 0.00 0.00 86 1018.3
20260510050404 23 357 0.0 0.0 0.00 0.00 0.00 86 1018.3
20260510045404 23 167 0.0 3.2 0.00 0.00 0.00 85 1018.3
20260510044904 23 24 0.0 3.2 0.00 0.00 0.00 85 1018.3
20260510044404 23 344 0.0 3.2 0.00 0.00 0.00 85 1018.3
20260510043903 23 24 0.0 1.6 0.00 0.00 0.00 85 1018.3
20260510042907 23 340 0.0 0.0 0.00 0.00 0.00 84 1018.6
20260510042407 24 346 0.0 3.2 0.00 0.00 0.00 84 1018.6
20260510041907 24 0 0.0 3.2 0.00 0.00 0.00 84 1018.6
20260510041407 24 332 0.0 1.6 0.00 0.00 0.00 84 1018.6
20260510040907 24 345 0.0 0.0 0.00 0.00 0.00 84 1018.6
20260510040407 24 1 0.0 0.0 0.00 0.00 0.00 84 1018.6
20260510035407 24 339 0.0 3.2 0.00 0.00 0.00 83 1018.6
20260510034907 24 348 0.0 3.2 0.00 0.00 0.00 83 1018.3
20260510034406 24 351 0.0 3.2 0.00 0.00 0.00 83 1018.3
20260510033906 24 354 0.0 0.0 0.00 0.00 0.00 83 1018.3
20260510032407 24 349 1.6 3.2 0.00 0.00 0.00 83 1018.3
20260510031907 24 39 0.0 3.2 0.00 0.00 0.00 83 1018.3
20260510030907 24 353 0.0 3.2 0.00 0.00 0.00 83 1018.3
20260510030407 24 354 0.0 4.8 0.00 0.00 0.00 83 1018.3
20260510025407 24 93 1.6 3.2 0.00 0.00 0.00 83 1018.3
20260510024407 24 9 0.0 1.6 0.00 0.00 0.00 83 1018.3
20260510023406 24 357 0.0 4.8 0.00 0.00 0.00 84 1018.3
20260510022907 24 73 3.2 3.2 0.00 0.00 0.00 84 1018.3
20260510022407 24 32 0.0 3.2 0.00 0.00 0.00 85 1017.9
20260510021907 24 339 0.0 0.0 0.00 0.00 0.00 85 1017.9
20260510021407 24 338 0.0 1.6 0.00 0.00 0.00 84 1017.9
20260510020907 24 345 0.0 1.6 0.00 0.00 0.00 84 1017.9
20260510020407 25 345 0.0 0.0 0.00 0.00 0.00 84 1017.8
20260510015906 25 342 0.0 0.0 0.00 0.00 0.00 84 1017.6
20260510014907 25 335 0.0 0.0 0.00 0.00 0.00 83 1017.6
20260510014407 25 343 0.0 0.0 0.00 0.00 0.00 82 1017.6
20260510013907 25 334 0.0 0.0 0.00 0.00 0.00 82 1017.6
20260510013406 25 342 0.0 0.0 0.00 0.00 0.00 81 1017.3
20260510012907 25 339 0.0 0.0 0.00 0.00 0.00 81 1017.3
20260510012407 25 342 0.0 0.0 0.00 0.00 0.00 81 1017.3
20260510011907 25 342 0.0 0.0 0.00 0.00 0.00 80 1017.3
20260510011406 25 338 0.0 0.0 0.00 0.00 0.00 80 1017.3
20260510010407 25 337 0.0 0.0 0.00 0.00 0.00 79 1017.3
20260510005907 26 344 0.0 0.0 0.00 0.00 0.00 78 1016.9
20260510005406 26 336 0.0 0.0 0.00 0.00 0.00 78 1016.9
20260510004906 26 343 0.0 0.0 0.00 0.00 0.00 78 1016.9
20260510004406 26 339 0.0 0.0 0.00 0.00 0.00 78 1016.9
20260510003906 26 353 0.0 3.2 0.00 0.00 0.00 77 1016.9
20260510003406 26 351 0.0 3.2 0.00 0.00 0.00 77 1016.9
20260510002406 26 307 0.0 3.2 0.00 0.00 0.00 77 1016.9
20260510001906 26 297 0.0 3.2 0.00 0.00 0.00 76 1016.9
20260510001406 26 330 0.0 3.2 0.00 0.00 0.00 76 1016.6
20260510000907 26 299 1.6 3.2 0.00 0.00 0.00 75 1016.6
20260510000406 26 295 3.2 4.8 0.00 0.00 0.00 75 1016.6
20260509235907 26 307 3.2 4.8 0.00 0.00 0.00 74 1016.6
20260509235406 26 337 3.2 8.0 0.00 0.00 0.00 74 1016.3
20260509234906 27 335 3.2 8.0 0.00 0.00 0.00 74 1016.6
20260509234406 27 315 3.2 11.3 0.00 0.00 0.00 74 1016.6
20260509233906 27 314 8.0 12.9 0.00 0.00 0.00 73 1016.3
20260509233407 27 327 4.8 16.1 0.00 0.00 0.00 73 1016.3
20260509232906 27 339 8.0 16.1 0.00 0.00 0.00 73 1016.3
20260509232407 27 307 16.1 16.1 0.00 0.00 0.00 72 1016.3
20260509231907 27 285 8.0 11.3 0.00 0.00 0.00 72 1016.3
20260509230907 27 287 4.8 11.3 0.00 0.00 0.00 70 1016.3
20260509230406 27 280 12.9 12.9 0.00 0.00 0.00 70 1015.9
20260509225906 27 290 8.0 16.1 0.00 0.00 0.00 69 1016.1
20260509225406 28 301 11.3 20.9 0.00 0.00 0.00 68 1016.3
20260509224907 28 300 11.3 20.9 0.00 0.00 0.00 67 1016.2
20260509224406 28 278 9.7 19.3 0.00 0.00 0.00 65 1015.9
20260509223907 28 307 8.0 11.3 0.00 0.00 0.00 64 1015.9
20260509223406 28 262 11.3 12.9 0.00 0.00 0.00 62 1015.9
20260509222406 29 274 8.0 11.3 0.00 0.00 0.00 60 1015.6
20260509221406 29 323 12.9 12.9 0.00 0.00 0.00 58 1015.6
20260509220907 29 275 11.3 16.1 0.00 0.00 0.00 57 1015.6
20260509220406 30 303 8.0 16.1 0.00 0.00 0.00 55 1015.6
20260509215907 30 285 4.8 11.3 0.00 0.00 0.00 55 1015.2
20260509215406 30 307 11.3 11.3 0.00 0.00 0.00 56 1015.2
20260509214907 30 21 11.3 11.3 0.00 0.00 0.00 56 1015.2
20260509213906 31 270 9.7 16.1 0.00 0.00 0.00 53 1014.9
20260509213406 32 312 11.3 16.1 0.00 0.00 0.00 51 1014.9
20260509212906 32 303 9.7 16.1 0.00 0.00 0.00 52 1014.9
20260509212406 32 314 6.4 11.3 0.00 0.00 0.00 51 1014.9
20260509211906 32 328 8.0 9.7 0.00 0.00 0.00 51 1014.9
20260509211406 32 319 12.9 19.3 0.00 0.00 0.00 50 1014.9
20260509210906 32 309 16.1 19.3 0.00 0.00 0.00 50 1014.9
20260509210406 32 305 11.3 19.3 0.00 0.00 0.00 51 1014.9
20260509205906 32 307 6.4 19.3 0.00 0.00 0.00 52 1014.9
20260509205406 32 298 9.7 14.5 0.00 0.00 0.00 52 1014.9
20260509204906 32 295 4.8 19.3 0.00 0.00 0.00 52 1014.9
20260509204406 32 351 9.7 22.5 0.00 0.00 0.00 51 1014.9
20260509203906 32 306 12.9 22.5 0.00 0.00 0.00 50 1014.9
20260509203406 32 293 4.8 16.1 0.00 0.00 0.00 50 1014.6
20260509202906 32 288 8.0 16.1 0.00 0.00 0.00 50 1014.6
20260509202406 32 308 11.3 16.1 0.00 0.00 0.00 49 1014.9
20260509201905 33 295 11.3 19.3 0.00 0.00 0.00 48 1014.9
20260509201406 33 259 16.1 19.3 0.00 0.00 0.00 49 1014.9
20260509200906 33 291 12.9 19.3 0.00 0.00 0.00 48 1014.9
20260509200406 34 316 9.7 12.9 0.00 0.00 0.00 46 1014.9
20260509195905 34 315 6.4 12.9 0.00 0.00 0.00 47 1014.9
20260509195406 33 164 4.8 9.7 0.00 0.00 0.00 48 1014.9
20260509194906 33 220 9.7 12.9 0.00 0.00 0.00 48 1014.9
20260509194405 33 259 8.0 19.3 0.00 0.00 0.00 47 1014.9